This is the latest recevied weather packets stored in our database for station/object K4KMJ. If no packets are shown the sender has not sent any weather packets the latest 1 day(s).
| Time | Temp. | Humidity | Pressure | Rain* | Wind** | Luminosity | Snow |
|---|---|---|---|---|---|---|---|
| 1778026811 | 23.33° C | 68% | 1017.5 hPa | 0 mm | - | 0 W/m² | - |
| 1778025297 | 23.89° C | 66% | 1017.2 hPa | 0 mm | - | 5 W/m² | - |
| 1778024085 | 24.44° C | 63% | 1017.3 hPa | 0 mm | - | 23 W/m² | - |
| 1778023177 | 25° C | 61% | 1017.4 hPa | 0 mm | - | 36 W/m² | - |
| 1778022874 | 25° C | 60% | 1017.2 hPa | 0 mm | - | 42 W/m² | - |
| 1778022270 | 25° C | 60% | 1017.5 hPa | 0 mm | - | 51 W/m² | - |
| 1778021663 | 25° C | 59% | 1017 hPa | 0 mm | - | 65 W/m² | - |
| 1778020753 | 25.56° C | 59% | 1017.6 hPa | 0 mm | - | 76 W/m² | - |
| 1778019539 | 25.56° C | 57% | 1017.6 hPa | 0 mm | - | 161 W/m² | - |
| 1778019236 | 25.56° C | 57% | 1017.5 hPa | 0 mm | - | 185 W/m² | - |
| 1778018630 | 26.11° C | 57% | 1017.6 hPa | 0 mm | - | 214 W/m² | - |
| 1778015299 | 26.67° C | 57% | 1017.2 hPa | 0 mm | - | 400 W/m² | - |
| 1778012875 | 27.22° C | 57% | 1017.2 hPa | 0 mm | - | 501 W/m² | - |
| 1778012268 | 27.22° C | 57% | 1017.1 hPa | 0 mm | - | 527 W/m² | - |
| 1778011664 | 27.22° C | 57% | 1017.2 hPa | 0 mm | - | 628 W/m² | - |
| 1778010753 | 27.22° C | 56% | 1017.4 hPa | 0 mm | - | 207 W/m² | - |
| 1778010445 | 27.22° C | 56% | 1017.3 hPa | 0 mm | - | 496 W/m² | - |
| 1778009233 | 28.33° C | 56% | 1017.6 hPa | 0 mm | - | 799 W/m² | - |
| 1778008628 | 27.22° C | 57% | 1017.7 hPa | 0 mm | - | 758 W/m² | - |
| 1778007716 | 26.67° C | 58% | 1017.9 hPa | 0 mm | - | 210 W/m² | - |
| 1778006806 | 27.22° C | 57% | 1018 hPa | 0 mm | - | 743 W/m² | - |
| 1778006200 | 27.22° C | 57% | 1018.1 hPa | 0 mm | - | 869 W/m² | - |
| 1778005898 | 27.22° C | 58% | 1018.1 hPa | 0 mm | - | 434 W/m² | - |
| 1778005291 | 27.22° C | 57% | 1018.3 hPa | 0 mm | - | 321 W/m² | - |
| 1778004987 | 27.78° C | 58% | 1018.4 hPa | 0 mm | - | 991 W/m² | - |
* Rain latest hour (hover to see other rain measurements)
** Current wind speed in m/s (hover to see current wind gust speed)